Lapse_Rate
7.2 7.6 7.7 7.6 7.5 7.2 7.2 7.2 7.2 7.1 7.0 7.0 7.0 7.1 7.0 6.7 6.5 6.4 6.4 6.3 6.0 5.6 5.9 5.7 5.9 6.1 6.2 6.3 6.4 6.5 6.7 6.8
7.2 7.8 7.9 7.7 7.3 7.2 7.3 7.4 7.3 7.1 7.1 7.0 7.1 6.8 6.6 6.6 6.5 6.3 6.4 6.3 6.2 6.1 5.9 5.9 6.2 6.2 6.3 6.5 6.4 6.5 6.7 6.5
7.1 7.3 7.8 8.0 8.0 7.6 7.5 7.5 7.3 7.2 7.0 7.0 6.8 6.7 6.7 6.5 6.3 6.3 6.2 6.2 6.1 6.0 6.1 6.2 6.2 6.2 6.3 6.1 6.1 6.2 6.3 6.3
7.5 7.7 8.1 8.1 8.2 8.0 7.8 7.5 7.2 7.1 7.0 6.7 6.4 6.5 6.6 6.5 6.4 6.3 6.0 5.8 5.8 5.8 5.9 6.0 6.1 6.1 6.0 6.0 6.0 5.9 5.9 6.2
7.7 7.9 8.0 7.9 7.9 7.8 7.7 7.3 7.1 7.1 6.8 6.4 6.4 6.5 6.6 6.5 6.3 6.1 5.8 5.7 5.7 6.0 6.2 6.2 6.1 6.0 6.0 6.1 6.1 6.2 6.3 6.1
7.8 8.0 8.1 7.8 7.5 7.2 6.9 6.8 6.8 6.9 7.0 6.5 6.5 6.6 6.6 6.5 6.2 6.0 5.8 5.8 6.0 6.3 6.3 5.9 5.7 5.6 5.9 6.3 6.5 6.1 5.9 5.5
7.8 7.7 7.7 7.5 7.2 6.7 6.7 6.7 6.5 7.0 7.1 6.7 6.7 6.6 6.7 6.4 6.1 6.1 6.0 6.2 6.1 5.7 5.7 5.5 5.5 5.6 5.9 6.4 5.9 5.5 5.2 4.8
7.6 7.5 7.5 7.2 7.0 6.9 7.1 7.2 7.0 7.0 7.1 6.9 6.7 6.7 6.6 6.4 6.3 6.1 6.1 6.0 5.5 5.5 5.7 5.7 5.5 5.8 5.5 5.2 5.1 5.0 5.0 5.3
7.6 7.5 7.4 7.2 7.0 7.2 7.3 7.2 7.2 7.1 7.1 6.8 6.9 6.7 6.4 6.2 6.0 6.0 5.6 5.5 5.7 6.4 6.1 6.0 6.0 5.7 5.3 5.1 5.2 5.3 5.4 5.2
7.8 7.7 7.5 7.3 7.4 7.1 7.0 6.9 6.8 6.9 6.9 7.0 6.7 6.3 5.9 5.6 5.7 5.7 6.1 6.3 6.4 6.5 6.1 6.2 6.2 5.4 5.2 5.3 5.1 5.3 5.3 5.1
7.6 7.7 7.6 7.4 7.3 7.1 6.9 6.8 6.8 6.6 6.5 6.3 6.2 6.2 6.4 6.3 6.2 6.6 6.4 6.5 6.3 6.2 6.1 6.2 6.0 5.1 5.2 4.7 4.6 4.9 5.0 4.9
7.6 7.3 7.2 7.1 7.0 7.0 6.9 6.7 6.7 6.4 6.1 6.3 6.3 6.4 6.3 6.4 6.6 6.2 6.5 6.6 6.7 6.6 6.2 6.2 4.9 4.9 4.9 4.5 4.5 4.7 4.7 4.3
7.9 7.9 7.9 7.7 7.5 7.4 7.1 6.9 6.7 6.3 6.0 6.0 6.0 6.3 6.5 6.6 6.6 6.7 6.7 6.5 6.5 6.3 6.1 5.7 4.7 4.6 4.5 4.4 4.0 4.6 4.5 4.5
7.6 7.4 7.3 7.1 7.0 6.7 6.7 6.8 6.5 6.3 6.3 6.6 6.3 6.2 6.2 6.7 6.2 6.5 6.6 6.2 6.4 6.3 6.0 4.7 4.6 4.4 4.2 4.3 4.3 4.2 4.8 5.0
7.2 7.0 6.8 6.6 6.4 6.3 6.5 6.1 6.4 6.7 6.4 6.3 6.4 6.2 6.4 6.0 6.2 6.6 6.1 6.3 6.1 5.8 4.8 4.1 3.9 4.2 4.0 4.3 4.5 4.8 5.1 5.3
7.2 7.0 6.7 6.6 6.6 6.7 6.7 6.6 6.6 6.5 6.4 6.4 6.3 6.5 6.1 5.9 6.3 6.2 6.2 6.1 5.6 4.7 4.0 4.2 4.5 4.4 4.0 4.4 4.7 5.1 5.3 5.1
7.2 7.0 6.9 6.8 6.9 6.9 6.6 6.5 6.4 6.4 6.4 6.2 6.3 6.4 6.1 6.5 6.4 6.3 6.2 5.7 5.1 4.9 4.9 4.6 4.6 4.4 4.5 4.8 5.3 5.4 5.1 4.9
7.4 7.4 7.3 7.1 6.9 6.9 6.7 6.5 6.6 6.7 6.7 6.5 6.6 6.6 6.4 6.3 6.3 6.5 6.2 5.4 5.1 5.3 5.0 4.7 4.4 5.0 5.3 5.3 5.3 5.2 5.5 5.8
7.2 7.2 7.1 6.9 6.8 6.9 7.0 6.8 6.8 6.7 6.7 6.6 6.4 6.4 6.3 6.4 6.4 5.7 4.9 5.5 5.4 5.2 5.2 4.9 5.2 5.5 5.6 5.6 5.8 6.3 6.3 6.2
Wind_Speed
20 18 17 16 14 13 14 11 11 9 9 9 7 6 7 9 9 12 15 16 15 15 12 12 13 8 4 3 2 1 0 1
19 19 18 16 12 13 15 14 11 10 5 4 3 3 2 2 7 11 13 14 14 14 12 12 10 4 3 3 2 1 2 1
16 17 16 15 16 13 12 13 12 8 6 3 3 3 2 2 8 11 13 15 15 14 13 8 9 4 4 3 2 1 1 2
18 19 17 14 14 15 14 14 13 8 7 4 3 4 5 2 2 3 8 14 15 17 15 12 8 6 3 2 3 4 1 2
18 20 18 18 15 12 12 11 11 8 8 6 8 5 6 4 4 4 7 16 15 15 14 9 9 7 4 3 3 2 2 2
19 22 22 19 16 14 13 12 10 9 10 9 8 5 4 3 3 6 6 9 9 9 11 13 10 8 5 5 3 3 1 1
11 13 15 14 13 13 12 14 13 9 9 11 11 10 8 5 5 5 3 3 6 13 14 12 10 8 5 4 3 3 3 2
10 16 16 15 16 15 12 14 14 13 12 12 10 10 8 10 8 6 6 4 2 5 7 7 6 5 4 3 3 4 3 2
15 16 15 17 16 14 13 14 12 11 10 9 7 8 6 5 5 7 6 5 5 6 11 9 8 5 5 8 5 3 4 2
13 12 13 14 15 15 15 13 10 10 10 9 8 7 8 7 7 7 7 6 7 9 9 7 5 8 9 6 3 4 3 1
7 8 10 11 9 8 9 10 10 9 9 10 8 7 8 9 10 9 9 9 7 7 7 4 4 6 6 6 3 2 2 2
10 9 9 10 10 10 9 10 13 11 10 8 9 8 7 6 6 7 7 4 7 5 5 3 3 4 4 3 1 1 2 4
14 14 14 13 14 13 11 9 10 10 11 10 11 11 9 8 8 7 6 4 7 6 5 3 0 4 4 3 3 3 3 4
11 11 15 16 16 14 11 12 14 13 13 14 12 8 7 8 10 7 5 6 5 5 3 2 2 5 5 5 5 5 5 5
11 12 14 14 12 9 10 10 10 12 11 10 10 9 9 10 6 7 7 6 6 4 3 4 3 5 6 5 4 5 5 5
7 7 7 7 7 7 7 9 9 9 10 8 8 7 8 7 9 7 6 5 4 4 4 3 3 5 4 5 5 5 5 5
6 7 6 10 11 10 10 11 10 9 9 6 8 9 9 7 6 6 6 3 4 3 2 6 5 4 8 9 7 5 5 5
6 7 9 9 9 10 9 10 7 8 10 9 8 8 7 7 6 6 4 4 4 6 6 6 6 5 10 11 11 5 5 5
6 5 6 7 9 10 11 11 11 11 11 10 9 9 9 9 7 5 2 5 5 4 5 6 5 5 11 12 12 5 4 5
Wind_Direction
181 172 175 171 164 156 142 144 136 123 117 111 101 106 113 128 137 142 141 141 135 126 115 113 114 103 75 70 103 42 147 92
176 172 171 169 158 156 155 151 152 144 142 139 123 141 163 130 160 162 156 152 149 132 122 108 111 109 125 108 102 35 348 20
173 172 171 169 164 165 157 157 160 162 158 137 135 139 184 152 175 179 172 158 145 129 127 139 142 130 119 107 115 103 308 13
170 174 172 167 169 169 168 167 165 163 151 123 83 85 81 113 181 190 192 171 158 152 159 157 152 119 121 118 109 90 62 322
168 172 173 176 176 170 167 165 168 167 163 161 166 166 163 195 182 180 178 173 169 173 165 142 122 120 115 102 73 94 109 308
170 178 180 176 166 169 169 170 173 180 181 179 176 175 181 149 142 168 182 185 158 114 124 127 121 116 100 79 58 45 97 202
165 173 164 166 168 171 169 178 183 185 189 187 185 180 177 158 157 174 167 92 103 117 122 121 107 92 84 78 73 43 17 321
157 161 169 168 174 177 180 187 188 190 185 191 191 183 175 177 174 168 133 114 103 112 91 68 76 81 83 77 61 49 42 44
176 167 170 175 177 176 187 187 190 179 178 183 168 151 158 152 144 129 121 122 116 98 115 152 134 135 84 78 78 80 49 21
177 166 170 172 176 183 185 192 188 176 171 149 140 141 133 132 114 110 121 119 138 165 113 92 68 69 93 87 69 45 29 358
149 159 159 171 177 172 176 174 166 156 140 145 141 130 131 131 131 144 136 143 135 96 83 145 100 123 109 90 65 26 61 330
169 172 173 170 167 159 162 152 152 142 141 129 130 129 117 108 115 117 121 134 109 113 164 121 109 169 143 135 186 214 279 277
178 176 172 172 175 171 166 150 140 144 142 134 136 130 131 120 119 131 145 127 125 168 158 126 171 174 191 205 248 226 240 262
181 175 180 181 184 178 160 158 159 155 149 141 138 138 124 143 158 163 127 131 154 153 148 196 239 201 207 225 228 233 211 190
190 189 192 190 184 175 156 152 150 143 131 136 147 148 158 154 147 128 127 147 148 167 205 228 246 212 220 234 228 212 196 194
210 195 180 162 151 133 126 127 131 131 135 150 163 145 132 127 114 125 151 137 170 203 235 260 268 210 215 227 204 193 205 230
181 166 147 158 154 145 137 136 139 142 146 130 117 115 107 116 125 125 128 158 242 241 229 220 233 223 215 205 193 203 214 225
112 143 151 152 151 140 134 132 116 101 107 107 105 111 112 111 108 88 66 348 328 246 240 237 248 234 207 207 204 205 216 227
51 94 91 79 102 105 102 102 101 104 100 99 89 82 69 54 48 26 315 234 240 258 252 260 265 241 204 210 209 202 218 242